FW1492 Weather Reports


time (UTC)temp
C
wind
direction
speed
KPH
gust
KPH
rain 1hr
cm
rain 24hr
cm
rain mn
cm
humidity
%
barometer
mb
20260507104554 5 308 3.2 12.9 0.00 0.69 0.15 95 1011.0
20260507103047 5 46 4.8 9.7 0.00 0.69 0.15 95 1010.7
20260507101549 5 2 1.6 14.5 0.00 0.69 0.15 95 1010.7
20260507100047 5 37 3.2 9.7 0.00 0.69 0.15 95 1010.6
20260507094545 5 304 4.8 0.0 0.00 0.00 0.15 95 1010.6
20260507093045 5 302 1.6 8.0 0.00 0.69 0.15 95 1010.4
20260507091545 5 15 3.2 9.7 0.00 0.69 0.15 95 1010.3
20260507090041 6 326 3.2 12.9 0.00 0.69 0.15 95 1010.1
20260507084541 6 49 4.8 8.0 0.00 0.69 0.15 95 1010.3
20260507083039 6 23 3.2 14.5 0.00 0.69 0.15 95 1010.4
20260507081537 6 321 3.2 12.9 0.00 0.69 0.15 95 1010.4
20260507080037 6 40 4.8 11.3 0.03 0.69 0.15 95 1010.3
20260507074537 6 337 3.2 16.1 0.08 0.69 0.15 95 1010.4
20260507073036 6 39 4.8 16.1 0.08 0.69 0.15 95 1010.6
20260507071531 6 319 6.4 17.7 0.10 0.69 0.15 94 1010.6
20260507070129 6 322 3.2 8.0 0.10 0.69 0.15 94 1010.6
20260507064526 6 323 4.8 9.7 0.05 0.61 0.08 93 1010.5
20260507063039 6 307 3.2 14.5 0.08 0.61 0.08 93 1010.4
20260507061526 7 338 4.8 12.9 0.05 0.58 0.05 92 1010.5
20260507060035 7 50 6.4 16.1 0.03 0.56 0.03 92 1010.6
20260507054518 7 333 6.4 14.5 0.03 0.56 0.03 92 1010.2
20260507053015 7 23 6.4 20.9 0.00 0.53 0.00 92 1009.6
20260507051514 7 335 3.2 14.5 0.00 0.53 0.00 92 1009.6
20260507050010 7 323 6.4 16.1 0.00 0.53 0.00 92 1009.7
20260507044507 8 13 8.0 14.5 0.00 0.53 0.00 92 1009.8
20260507043006 8 323 4.8 16.1 0.00 0.53 0.00 92 1010.2
20260507041503 8 323 4.8 12.9 0.00 0.53 0.00 93 1010.0
20260507040111 8 319 4.8 9.7 0.00 0.53 0.00 93 1009.9
20260507034609 8 331 3.2 11.3 0.00 0.53 0.53 93 1009.7
20260507033104 8 347 6.4 14.5 0.00 0.53 0.53 92 1009.8
20260507031618 8 297 4.8 12.9 0.00 0.53 0.53 92 1009.7
20260507030056 8 332 4.8 14.5 0.00 0.53 0.53 92 1009.7
20260507024653 8 338 4.8 12.9 0.00 0.53 0.53 92 1009.8
20260507023051 8 304 6.4 14.5 0.00 0.53 0.53 92 1009.8
20260507021549 9 328 6.4 12.9 0.00 0.53 0.53 93 1010.3
20260507020047 9 17 4.8 12.9 0.00 0.53 0.53 93 1010.2
20260507014550 10 301 4.8 19.3 0.00 0.53 0.53 94 1010.0
20260507013049 10 10 8.0 16.1 0.00 0.53 0.53 94 1009.7
20260507011538 11 322 4.8 14.5 0.03 0.53 0.53 95 1009.6
20260507010045 11 329 3.2 11.3 0.13 0.53 0.53 95 1009.4
20260507004532 11 334 4.8 11.3 0.13 0.53 0.53 95 1009.2
20260507003030 12 339 6.4 14.5 0.13 0.53 0.53 94 1008.8
20260507001530 13 20 8.0 20.9 0.10 0.51 0.51 93 1008.5
20260507000023 14 247 1.6 4.8 0.00 0.41 0.41 96 1007.9
20260506234530 14 233 1.6 6.4 0.00 0.41 0.41 96 1008.0
20260506233022 14 212 0.0 4.8 0.00 0.41 0.41 96 1007.7
20260506231527 14 227 1.6 6.4 0.00 0.41 0.41 96 1007.6
20260506230026 14 262 1.6 6.4 0.00 0.41 0.41 96 1007.7
20260506224521 14 229 1.6 8.0 0.00 0.41 0.41 96 1007.6
20260506223020 14 266 1.6 8.0 0.00 0.41 0.41 96 1007.4
20260506221520 14 230 1.6 6.4 0.00 0.41 0.41 96 1007.3
20260506220024 14 253 1.6 12.9 0.00 0.41 0.41 96 1007.1
20260506214518 14 284 1.6 8.0 0.00 0.41 0.41 96 1006.9
20260506213017 14 256 1.6 6.4 0.00 0.41 0.41 96 1007.1
20260506211524 14 311 1.6 8.0 0.00 0.41 0.41 96 1006.9
20260506210025 13 218 3.2 11.3 0.00 0.41 0.41 96 1006.7
20260506204516 13 270 4.8 9.7 0.00 0.41 0.41 96 1006.6
20260506203014 13 236 4.8 0.0 0.00 0.00 0.41 96 1006.4
20260506201516 13 240 1.6 6.4 0.03 0.41 0.41 95 1006.6
20260506200030 13 240 1.6 9.7 0.05 0.41 0.41 95 1006.6
20260506194513 14 212 1.6 9.7 0.10 0.41 0.41 96 1006.9
20260506193009 13 222 4.8 11.3 0.15 0.41 0.41 95 1007.2
20260506191509 14 249 3.2 8.0 0.15 0.38 0.38 95 1007.3
20260506190007 14 165 1.6 4.8 0.15 0.36 0.36 95 1007.2
20260506184506 14 222 1.6 6.4 0.08 0.28 0.28 95 1007.5
20260506183006 14 228 1.6 6.4 0.05 0.25 0.25 95 1007.5
20260506181505 13 231 3.2 8.0 0.05 0.23 0.23 95 1007.5
20260506180014 13 243 3.2 9.7 0.03 0.20 0.20 94 1007.6
20260506174503 13 128 1.6 11.3 0.05 0.20 0.20 94 1007.7
20260506173003 13 212 3.2 9.7 0.05 0.20 0.20 94 1007.8
20260506171611 14 198 4.8 9.7 0.08 0.18 0.18 94 1007.5
20260506170112 14 179 3.2 16.1 0.13 0.18 0.18 94 1007.5
20260506164614 14 214 3.2 9.7 0.10 0.15 0.15 93 1007.7
20260506163102 15 204 3.2 9.7 0.10 0.15 0.15 93 1007.7
20260506161554 15 188 4.8 9.7 0.08 0.10 0.10 92 1008.2
20260506160105 15 165 1.6 6.4 0.05 0.05 0.05 92 1008.4
20260506154553 15 186 1.6 8.0 0.05 0.05 0.05 91 1008.7
20260506153048 15 226 1.6 8.0 0.05 0.05 0.05 91 1008.5
20260506151549 15 217 1.6 4.8 0.03 0.03 0.03 89 1008.7
20260506150046 16 211 1.6 9.7 0.00 0.00 0.00 86 1009.0
20260506144545 16 193 3.2 9.7 0.00 0.00 0.00 84 1009.1
20260506143044 16 207 1.6 8.0 0.00 0.00 0.00 84 1009.0
20260506141603 16 212 1.6 8.0 0.00 0.00 0.00 84 1008.8
20260506140044 16 202 1.6 6.4 0.00 0.00 0.00 83 1008.8
20260506134543 16 243 4.8 9.7 0.00 0.00 0.00 83 1009.1
20260506133042 16 205 3.2 9.7 0.00 0.00 0.00 82 1009.1
20260506131543 16 229 3.2 9.7 0.00 0.00 0.00 83 1009.0
20260506130041 16 212 3.2 9.7 0.00 0.00 0.00 84 1009.0
20260506124640 16 207 3.2 9.7 0.00 0.00 0.00 84 1008.8
20260506123043 16 223 1.6 9.7 0.00 0.00 0.00 85 1008.9
20260506121538 15 176 4.8 9.7 0.00 0.00 0.00 85 1008.9
20260506120104 15 204 3.2 9.7 0.00 0.00 0.00 86 1009.2
20260506114536 15 168 3.2 9.7 0.00 0.00 0.00 86 1009.1
20260506113036 15 221 4.8 11.3 0.00 0.00 0.00 86 1009.1
20260506111539 15 202 3.2 9.7 0.00 0.00 0.00 87 1009.0
20260506110035 15 225 1.6 8.0 0.00 0.00 0.00 87 1009.0